Regional Weather Roundup
Issued by NWS Lake Charles, LA

Home | Current Version | Previous Version | Text Only | Print | Product List | Glossary On
Versions: 1 2 3 4 5 6 7 8 9 10 11 12 13 14 15 16 17 18 19 20 21 22 23 24 25 26 27 28 29 30 31 32 33 34 35 36 37 38 39 40 41 42 43 44 45 46 47 48 49 50
685
ASUS44 KLCH 201310
RWRLCH
REGIONAL WEATHER ROUNDUP
NATIONAL WEATHER SERVICE LAKE CHARLES LA
800 AM CDT THU JUL 20 2017

Note: "fair" indicates few or no clouds below 12,000 feet with no
significant weather and/or obstructions to visibility.


ACROSS SOUTHEAST TEXAS

CITY           SKY/WX    TMP DP  RH WIND       PRES   REMARKS
BEAUMONT       SUNNY     82  78  88 NW6       30.12R
BEAUMONT CITY  FAIR      81  77  89 MISG      30.14R
ORANGE         SUNNY     80  79  96 CALM      30.15R
JASPER           N/A     78  77  97 CALM      30.16R
$$

ACROSS CENTRAL LOUISIANA

CITY           SKY/WX    TMP DP  RH WIND       PRES   REMARKS
LEESVILLE      SUNNY     80  77  90 NW6       30.13R
FULLERTON      FAIR      80  77  90 CALM      30.11R
ALEXANDRIA INT SUNNY     78  76  93 CALM      30.12R
ESLER FIELD    SUNNY     79  77  94 CALM      30.13R
DERIDDER       FAIR     N/A N/A N/A CALM      30.15R
OAKDALE        SUNNY     79  76  92 CALM      30.13S
OPELOUSAS      FAIR      80  77  90 CALM      30.13R
$$

ACROSS SOUTHWEST AND SOUTH CENTRAL LOUISIANA

CITY           SKY/WX    TMP DP  RH WIND       PRES   REMARKS
SULPHUR        SUNNY     82  79  88 W3        30.14R
LAKE CHARLES   SUNNY     83  79  88 CALM      30.12R
CHENNAULT INT  SUNNY     82  77  83 VRB5      30.13R
CAMERON PHI    SUNNY     84  81  89 NW5       30.12R
DEQUINCY       FAIR      79  76  90 CALM      30.14R
JENNINGS       FAIR      80  77  91 NW3       30.13R
LAFAYETTE      SUNNY     82  77  84 CALM      30.13R
NEW IBERIA     SUNNY     82  75  79 CALM      30.13R
ABBEVILLE      FAIR      79  79 100 CALM      30.13S
PATTERSON      SUNNY     81  77  88 CALM      30.13R
SALT POINT       N/A     81  78  91 CALM      30.11R
$$

SELECTED SITES ACROSS THE REGION

CITY           SKY/WX    TMP DP  RH WIND       PRES   REMARKS
HOUSTON BUSH   MOSUNNY   83  77  82 W3        30.13R
HOUSTON HOBBY  MOSUNNY   83  77  82 W3        30.13R
GALVESTON      PTSUNNY   82  75  79 CALM      30.13S
COLLEGE STAT   SUNNY     80  77  90 S3        30.14R
CONROE         SUNNY     80  76  87 W5        30.14R
HUNTSVILLE     SUNNY     80  75  84 VRB5      30.14R
LUFKIN         SUNNY     79  76  90 W5        30.14R
SHREVEPORT     SUNNY     81  77  88 SW3       30.11S
MONROE         SUNNY     81  76  84 CALM      30.12S
NATCHEZ MS     NOT AVBL
BATON ROUGE    SUNNY     81  75  82 N3        30.13R
N.O. INTL ARPT MOSUNNY   84  77  79 N3        30.12R
SLIDELL        SUNNY     81  76  84 CALM      30.11S
$$

MARINE REPORTS

STATION/POSITION TIME  SKY/WX   TEMP    WIND        PRES    VSBY
                                AIR SEA DIR/SP/G
                 (UTC)          (F)     (DEG/KT/KT) (MB)    (MI)
BUOY 30 S HIGH I 1150            85 87  260/  6/  8 1019.7
WVE H/P(F/S)=  1/ 5

SEA RIM ST PARK  1200            80     300/  4/  5 1020.1R
PORT ARTHUR      1248            83 88  340/  3/  4 1020.4R
SABINE PASS N    1248            84 89  310/  3/  4 1021.7R
TEXAS POINT      NOT AVBL
CALCASIEU PASS   1248            83 87  360/  4/  5 1019.4R
LK CHARLES BEACH 1248            83 86              1020.8R
MARSH ISLAND     NOT AVBL
FRESH WATER LOCK 1248            83 89  350/  2/  3 1020.2R
AMERADA PASS     1248            80 84     CALM     1020.1R
$$




USA.gov is the U.S. government's official web portal to all federal, state and local government web resources and services.